[[{"header":{"parameterUnit":"m.s-1","parameterCategory":1,"la1":30.2991,"la2":30.254,"lo1":-89.0895,"lo2":-89.0444,"dy":0.0017,"dx":0.0017,"nx":28,"ny":28,"refTime":"2023-11-04T21:00:00:Z","depth":0,"parameterNumber":2,"parameterNumberName":"U-component_of_WINDS"},"data":[0,0,0,0,0,0,0,0,0,0,0,0,0,0,0,0,0,0,0,0,0,0,0,0,0,0,0,0,0,0,0,0,0,0,0,0,0,0,0,0,0,0,0,0,0,0,0,0,0,0,0,0,0,0,0,0,0,0,-0.2683,-0.2683,0,-0.2693,-0.2693,-0.2694,-0.268,-0.268,-0.2679,-0.2679,-0.2691,-0.2692,-0.2693,0,0,0,0,0,0,0,0,0,0,0,0,0,-0.2652,-0.2652,-0.2683,-0.2683,-0.2683,-0.2693,-0.2693,-0.2694,-0.268,-0.268,-0.2679,-0.2679,-0.2691,-0.2692,-0.2693,0,0,0,0,0,0,0,0,0,0,0,0,0,-0.2664,-0.2653,-0.2683,-0.2678,-0.2677,-0.2693,-0.2694,-0.2694,-0.2681,-0.268,-0.2679,-0.2678,-0.2691,-0.2692,-0.2693,-0.2715,0,0,-0.2697,-0.2697,0,0,0,0,0,0,0,0,-0.2663,-0.2665,-0.2678,-0.2678,-0.2678,-0.2685,-0.2687,-0.2701,-0.2681,-0.2679,-0.2679,-0.2678,-0.269,-0.2691,-0.2695,-0.2716,-0.2716,-0.2697,-0.2698,-0.2698,-0.2698,0,0,0,0,0,0,0,-0.2663,-0.2665,-0.2687,-0.2679,-0.2678,-0.2675,-0.2676,-0.269,-0.2689,-0.2679,-0.2679,-0.268,-0.269,-0.2694,-0.2695,-0.2716,-0.2697,-0.2698,-0.2699,-0.2699,-0.2755,-0.2756,0,0,0,0,0,0,-0.2662,-0.2664,-0.2687,-0.2687,-0.2669,-0.2676,-0.2677,-0.2683,-0.2688,-0.2689,-0.2681,-0.2679,-0.2692,-0.2694,-0.2695,-0.2721,-0.2698,-0.2699,-0.27,-0.2754,-0.2755,-0.2756,0,0,0,0,0,0,-0.2662,-0.2664,-0.2686,-0.2675,-0.2678,-0.2678,-0.2684,-0.2684,-0.2688,-0.2689,-0.2689,-0.2685,-0.2691,-0.2694,-0.271,-0.2721,-0.27,-0.2701,-0.2753,-0.2754,-0.2755,-0.2773,0,0,0,0,0,0,-0.2661,-0.2664,-0.2673,-0.2676,-0.2679,-0.2701,-0.2685,-0.2685,-0.269,-0.2688,-0.2693,-0.2693,-0.2691,-0.2708,-0.2711,-0.2722,-0.2702,-0.2752,-0.2754,-0.2755,-0.2771,-0.2774,-0.2777,0,0,0,0,0,-0.266,-0.2678,-0.2673,-0.2676,-0.2689,-0.2701,-0.2703,-0.27,-0.2691,-0.2699,-0.27,-0.2693,-0.2719,-0.271,-0.2713,-0.2725,-0.2751,-0.2753,-0.2755,-0.277,-0.2774,-0.2777,0,0,0,0,0,0,-0.2677,-0.2678,-0.2673,-0.2692,-0.2697,-0.2699,-0.271,-0.2704,-0.2711,-0.271,-0.2705,-0.2707,-0.2724,-0.2726,-0.2716,-0.2746,-0.2734,-0.2736,-0.2744,-0.2748,-0.2751,-0.275,-0.2703,0,0,0,0,0,-0.2683,-0.2692,-0.2693,-0.271,-0.2712,-0.271,-0.2716,-0.2712,-0.2717,-0.2719,-0.2721,-0.2726,-0.2735,-0.2742,-0.275,-0.2771,-0.2772,-0.2781,-0.2784,-0.2786,-0.2788,-0.2799,-0.2803,-0.2762,-0.2762,-0.2762,0,0,-0.2695,-0.2697,-0.2703,-0.2713,-0.2716,-0.2726,-0.2712,-0.2724,-0.2731,-0.2721,-0.2736,-0.2738,-0.2743,-0.2762,-0.277,-0.2764,-0.28,-0.2788,-0.279,-0.2791,-0.2801,-0.2805,-0.2809,-0.2763,-0.2763,-0.2762,0,0,-0.2723,-0.2725,-0.274,-0.2742,-0.2747,-0.2745,-0.2749,-0.2751,-0.2752,-0.2767,-0.2759,-0.2768,-0.2784,-0.2788,-0.2792,-0.282,-0.2814,-0.2823,-0.2839,-0.2849,-0.2852,-0.2855,-0.2865,-0.2868,-0.2825,-0.2825,-0.2825,0,-0.2739,-0.2753,-0.2748,-0.2759,-0.2764,-0.2754,-0.2768,-0.2771,-0.2779,-0.2782,-0.2775,-0.2794,-0.2797,-0.2816,-0.2822,-0.2826,-0.283,-0.2823,-0.2852,-0.2855,-0.2857,-0.2867,-0.287,-0.2826,-0.2826,-0.2826,-0.2826,0,-0.2772,-0.2782,-0.2793,-0.2799,-0.2804,-0.2817,-0.2814,-0.282,-0.2816,-0.2815,-0.283,-0.2833,-0.2842,-0.2846,-0.2842,-0.2864,-0.286,-0.2853,-0.284,-0.2862,-0.2871,-0.2875,-0.2828,-0.2827,-0.2827,-0.2827,0,0,-0.2812,-0.2814,-0.2818,-0.282,-0.2824,-0.2832,-0.2844,-0.2851,-0.2857,-0.2862,-0.2872,-0.2885,-0.2877,-0.2882,-0.2879,-0.2888,-0.2909,-0.2879,-0.2879,-0.2885,-0.2933,-0.2939,-0.2943,-0.2905,-0.2905,-0.2906,-0.2932,0,-0.284,-0.2861,-0.2856,-0.2876,-0.2885,-0.2875,-0.2885,-0.2889,-0.2888,-0.2896,-0.2895,-0.2904,-0.2894,-0.2896,-0.2905,-0.2905,-0.2919,-0.2903,-0.2914,-0.2915,-0.2914,-0.2948,-0.2954,-0.2979,-0.2936,-0.2936,-0.2937,0,-0.2876,-0.2881,-0.2903,-0.2903,-0.2907,-0.2916,-0.2922,-0.293,-0.2933,-0.2932,-0.2936,-0.293,-0.2942,-0.2929,-0.2946,-0.2935,-0.2939,-0.294,-0.294,-0.2942,-0.2928,-0.295,-0.2987,-0.2991,-0.2942,-0.2942,-0.2941,0,-0.2904,-0.2916,-0.293,-0.2932,-0.2933,-0.294,-0.2941,-0.2943,-0.2948,-0.2953,-0.2956,-0.2963,-0.2967,-0.2972,-0.2969,-0.2959,-0.2985,-0.2972,-0.2985,-0.2985,-0.2992,-0.2991,-0.303,-0.2994,-0.2994,-0.2994,-0.2993,0,-0.2936,-0.295,-0.2942,-0.2951,-0.2965,-0.2959,-0.2974,-0.2973,-0.2975,-0.2984,-0.2975,-0.2983,-0.2978,-0.2985,-0.2983,-0.2996,-0.2998,-0.2998,-0.2997,-0.2999,-0.2999,-0.3002,-0.3,-0.2995,-0.2994,-0.2994,-0.2994,0,-0.297,-0.2966,-0.298,-0.2979,-0.2979,-0.299,-0.299,-0.2998,-0.2995,-0.3006,-0.3009,-0.3005,-0.3014,-0.301,-0.302,-0.3018,-0.3035,-0.3032,-0.3034,-0.3034,-0.3047,-0.3045,-0.3089,-0.3094,-0.3054,-0.3055,-0.3055,0,-0.2991,-0.3001,-0.3001,-0.3005,-0.3007,-0.3014,-0.3019,-0.3012,-0.3017,-0.302,-0.3028,-0.3035,-0.3041,-0.3055,-0.3054,-0.3061,-0.3058,-0.3073,-0.3059,-0.306,-0.3058,-0.3058,-0.3059,-0.3076,-0.3076,-0.3077,-0.3077,0,-0.3029,-0.3026,-0.3032,-0.3037,-0.3042,-0.3046,-0.3049,-0.3054,-0.3047,-0.3053,-0.3061,-0.3065,-0.3074,-0.3082,-0.3087,-0.3088,-0.3082,-0.3081,-0.3084,-0.3087,-0.3087,-0.3087,-0.3042,-0.308,-0.308,-0.308,-0.3079,-0.3079,-0.3058,-0.3066,-0.3066,-0.3073,-0.3074,-0.3077,-0.3084,-0.3082,-0.3089,-0.3095,-0.3091,-0.31,-0.3102,-0.3109,-0.3111,-0.3118,-0.3112,-0.3117,-0.3118,-0.312,-0.3122,-0.3086,-0.3119,-0.3119,-0.3119,-0.3119,-0.3119,0,-0.3096,-0.3095,-0.3101,-0.3105,-0.311,-0.3102,-0.3105,-0.311,-0.3118,-0.312,-0.3125,-0.3134,-0.3141,-0.314,-0.3146,-0.3152,-0.3149,-0.3154,-0.3154,-0.3154,-0.3126,-0.3123,-0.3156,-0.3156,-0.3156,-0.3156,-0.3156,-0.3156,-0.3116,-0.3129,-0.3125,-0.3139,-0.3138,-0.3147,-0.3149,-0.3151,-0.3152,-0.3163,-0.3168,-0.3166,-0.3167,-0.3173,-0.3179,-0.3178,-0.3181,-0.3187,-0.3186,-0.316,-0.3156,-0.3153,-0.3149,-0.3188,-0.3188,-0.3213,-0.3213,-0.3213]},{"header":{"parameterUnit":"m.s-1","parameterCategory":1,"la1":30.2991,"la2":30.254,"lo1":-89.0895,"lo2":-89.0444,"dy":0.0017,"dx":0.0017,"nx":28,"ny":28,"refTime":"2023-11-04T21:00:00:Z","depth":0,"parameterNumber":3,"parameterNumberName":"V-component_of_WINDS"},"data":[0,0,0,0,0,0,0,0,0,0,0,0,0,0,0,0,0,0,0,0,0,0,0,0,0,0,0,0,0,0,0,0,0,0,0,0,0,0,0,0,0,0,0,0,0,0,0,0,0,0,0,0,0,0,0,0,0,0,-0.4376,-0.4377,0,-0.443,-0.443,-0.4431,-0.4432,-0.4432,-0.4431,-0.443,-0.4486,-0.4488,-0.449,0,0,0,0,0,0,0,0,0,0,0,0,0,-0.4276,-0.4278,-0.4376,-0.4377,-0.4377,-0.443,-0.443,-0.4431,-0.4432,-0.4432,-0.4431,-0.443,-0.4485,-0.4487,-0.449,0,0,0,0,0,0,0,0,0,0,0,0,0,-0.4323,-0.4278,-0.4376,-0.4384,-0.4386,-0.4429,-0.443,-0.4431,-0.4433,-0.4432,-0.4431,-0.443,-0.4484,-0.4487,-0.449,-0.4529,0,0,-0.45,-0.4501,0,0,0,0,0,0,0,0,-0.4321,-0.4327,-0.4382,-0.4384,-0.4385,-0.4423,-0.4415,-0.4464,-0.4433,-0.4415,-0.443,-0.4429,-0.4466,-0.447,-0.4482,-0.4532,-0.4534,-0.45,-0.4502,-0.4503,-0.4504,0,0,0,0,0,0,0,-0.4317,-0.4325,-0.4397,-0.4383,-0.4385,-0.4386,-0.4391,-0.4424,-0.4445,-0.4416,-0.4417,-0.4423,-0.4466,-0.4479,-0.4484,-0.4535,-0.45,-0.4503,-0.4505,-0.4506,-0.462,-0.4621,0,0,0,0,0,0,-0.4312,-0.4322,-0.4396,-0.4399,-0.435,-0.4388,-0.4395,-0.4412,-0.4445,-0.4449,-0.4424,-0.4423,-0.4475,-0.448,-0.4486,-0.4534,-0.4503,-0.4506,-0.4508,-0.4619,-0.462,-0.4622,0,0,0,0,0,0,-0.431,-0.4319,-0.4393,-0.4361,-0.437,-0.4391,-0.4411,-0.4414,-0.4427,-0.445,-0.4454,-0.4433,-0.4474,-0.4481,-0.4519,-0.4536,-0.4508,-0.451,-0.4618,-0.4619,-0.4621,-0.4631,0,0,0,0,0,0,-0.4307,-0.4318,-0.4333,-0.4361,-0.4372,-0.4425,-0.4412,-0.4415,-0.4432,-0.4432,-0.446,-0.4464,-0.4474,-0.4514,-0.4522,-0.454,-0.4513,-0.4616,-0.4618,-0.462,-0.463,-0.4633,-0.4637,0,0,0,0,0,-0.4304,-0.4334,-0.4334,-0.4343,-0.4391,-0.4426,-0.4433,-0.4443,-0.4434,-0.4449,-0.4464,-0.4463,-0.4533,-0.4518,-0.4527,-0.4546,-0.4615,-0.4618,-0.462,-0.4628,-0.4633,-0.4636,0,0,0,0,0,0,-0.4307,-0.4337,-0.4338,-0.4378,-0.4399,-0.4426,-0.4446,-0.4447,-0.4472,-0.4471,-0.4482,-0.4489,-0.4526,-0.454,-0.4522,-0.4586,-0.4573,-0.4577,-0.4576,-0.458,-0.4584,-0.458,-0.4515,0,0,0,0,0,-0.4313,-0.4339,-0.4364,-0.4397,-0.4407,-0.4425,-0.4441,-0.4447,-0.447,-0.4479,-0.4497,-0.4519,-0.4547,-0.4564,-0.459,-0.4631,-0.4638,-0.4649,-0.4653,-0.4655,-0.4659,-0.4683,-0.4688,-0.463,-0.463,-0.463,0,0,-0.4324,-0.4344,-0.436,-0.4398,-0.4415,-0.4442,-0.4433,-0.4461,-0.4482,-0.4484,-0.452,-0.4534,-0.456,-0.46,-0.4618,-0.4612,-0.4677,-0.4659,-0.4661,-0.4663,-0.4686,-0.4692,-0.4697,-0.4632,-0.4632,-0.4631,0,0,-0.4359,-0.4376,-0.4406,-0.4424,-0.4451,-0.4462,-0.4469,-0.4496,-0.4506,-0.4542,-0.4544,-0.4569,-0.4615,-0.4634,-0.4649,-0.4692,-0.4692,-0.47,-0.4718,-0.4741,-0.4745,-0.475,-0.4765,-0.4771,-0.4703,-0.4704,-0.4704,0,-0.437,-0.4411,-0.4421,-0.445,-0.4467,-0.447,-0.45,-0.4517,-0.4551,-0.4563,-0.4556,-0.4614,-0.4632,-0.4676,-0.4687,-0.4699,-0.4708,-0.4697,-0.4744,-0.4748,-0.4752,-0.4767,-0.4773,-0.4704,-0.4704,-0.4704,-0.4704,0,-0.4423,-0.4452,-0.4472,-0.4505,-0.4525,-0.4554,-0.4569,-0.4588,-0.4592,-0.4604,-0.4642,-0.4663,-0.4694,-0.4705,-0.471,-0.4751,-0.4746,-0.4741,-0.4728,-0.4758,-0.4773,-0.4779,-0.4706,-0.4705,-0.4705,-0.4705,0,0,-0.4462,-0.4501,-0.4508,-0.4523,-0.4553,-0.4575,-0.4605,-0.4636,-0.4651,-0.4675,-0.4701,-0.474,-0.4736,-0.4753,-0.476,-0.478,-0.4813,-0.4773,-0.4774,-0.478,-0.486,-0.4864,-0.4871,-0.4814,-0.4815,-0.4816,-0.4859,0,-0.4501,-0.4554,-0.4564,-0.4611,-0.4637,-0.4641,-0.4667,-0.4688,-0.4701,-0.4725,-0.4739,-0.4767,-0.4759,-0.477,-0.479,-0.4805,-0.483,-0.4802,-0.4838,-0.4839,-0.4832,-0.4879,-0.4883,-0.4922,-0.4864,-0.4865,-0.4866,0,-0.4553,-0.4578,-0.4627,-0.4654,-0.4666,-0.4689,-0.4718,-0.4741,-0.4766,-0.4773,-0.4793,-0.4798,-0.483,-0.4815,-0.4859,-0.484,-0.4856,-0.4866,-0.4867,-0.4872,-0.4855,-0.4885,-0.4935,-0.4941,-0.4875,-0.4874,-0.4874,0,-0.4578,-0.4623,-0.4659,-0.4672,-0.4704,-0.472,-0.4734,-0.4758,-0.4776,-0.4801,-0.4813,-0.4841,-0.4857,-0.4879,-0.4891,-0.4879,-0.4935,-0.4921,-0.4943,-0.4943,-0.4955,-0.4954,-0.5009,-0.4964,-0.4964,-0.4963,-0.4963,0,-0.462,-0.465,-0.467,-0.4692,-0.4726,-0.4738,-0.4771,-0.4785,-0.4806,-0.4831,-0.4835,-0.4859,-0.4874,-0.4899,-0.4909,-0.4945,-0.4952,-0.4959,-0.4961,-0.4959,-0.4958,-0.497,-0.4968,-0.4965,-0.4965,-0.4964,-0.4964,0,-0.4653,-0.4668,-0.4707,-0.4734,-0.4742,-0.4766,-0.4789,-0.4811,-0.4823,-0.4855,-0.4863,-0.4883,-0.4913,-0.4928,-0.4965,-0.4972,-0.5013,-0.5013,-0.5004,-0.5005,-0.5027,-0.5025,-0.5091,-0.5101,-0.5049,-0.5049,-0.5049,0,-0.468,-0.4703,-0.4733,-0.475,-0.4765,-0.4792,-0.481,-0.4822,-0.4841,-0.4871,-0.4889,-0.492,-0.4945,-0.4994,-0.5012,-0.5041,-0.5042,-0.5064,-0.5047,-0.5044,-0.5044,-0.5042,-0.5045,-0.5067,-0.5067,-0.5068,-0.5068,0,-0.4725,-0.4732,-0.4757,-0.4786,-0.4808,-0.4831,-0.4854,-0.4868,-0.4884,-0.4905,-0.4936,-0.4956,-0.4994,-0.5025,-0.5055,-0.507,-0.5072,-0.5073,-0.508,-0.5078,-0.5073,-0.5077,-0.5014,-0.5072,-0.5071,-0.5071,-0.5071,-0.5071,-0.4757,-0.4778,-0.4802,-0.4831,-0.485,-0.4871,-0.4893,-0.4908,-0.4934,-0.4967,-0.4973,-0.5006,-0.5031,-0.5072,-0.5088,-0.5114,-0.511,-0.5119,-0.5122,-0.5124,-0.5126,-0.5068,-0.512,-0.512,-0.512,-0.512,-0.512,0,-0.4803,-0.4819,-0.4846,-0.4878,-0.4901,-0.49,-0.4926,-0.4945,-0.4974,-0.4997,-0.5022,-0.5058,-0.5088,-0.5108,-0.5139,-0.5156,-0.5158,-0.5164,-0.5163,-0.5167,-0.5128,-0.5119,-0.5162,-0.5162,-0.5162,-0.5162,-0.5162,-0.5162,-0.483,-0.4866,-0.4875,-0.4921,-0.4937,-0.4969,-0.4984,-0.5004,-0.5022,-0.5063,-0.5088,-0.5101,-0.5123,-0.5155,-0.5182,-0.5188,-0.5199,-0.5205,-0.521,-0.5174,-0.5169,-0.5165,-0.5157,-0.5207,-0.5207,-0.5247,-0.5248,-0.5248]}]]